星链-6166 (STARLINK-6166 )

导读 | 星芒AI

STARLINK-6166 是 SpaceX 星链计划中的一颗低轨通信卫星,属于第61组星链卫星中的第66颗。该卫星于2023年发射,部署在约550公里高度的近地轨道,旨在为全球用户提供高速互联网服务。星链系统通过大规模卫星组网,提升网络覆盖范围与连接稳定性,尤其在偏远地区具有重要意义。STARLINK-6166 采用先进推进和通信技术,支持自动组网与轨道调整,是实现全球宽带接入目标的重要组成部分。

基本信息
目录编号:
56383
目录名称:
STARLINK-6166
国际标识:
2023-061K
轨道中心:
EARTH
卫星名称:
星链-6166
卫星全名:
星链-6166 (STARLINK-6166 )
卫星状态:
在轨 (已飞行915 天)
发射日期:
2023-05-04 UTC
国别 :
美国 (US)
星等 :
--
轨道信息
数据来源 国际轨道数据
星历时间: 2025-11-02T07:19:46+0800
2天前
查看轨道信息
半长轴: 6937.22km
偏心率: 0.0001293
轨道倾角: 43.003°
近地点辐角 265.886°
升交点赤经 171.355°
平近点角 94.183°
近地点: 558.188km
远地点: 559.982km
周期: 95.838分钟
每日圈数: 15.02535
详细信息
固有亮度:
5
最大亮度:
2.5
卫星平台:
Starlink v1.5
覆盖范围:
全球
运营商:
太空探索技术公司
运营商所在国:
美国
制造商(研发单位):
太空探索技术公司
制造商所在国:
美国
使用方式:
暂无
卫星简介
星链(Starlink)计划是由太空探索技术公司(SpaceX)提出的一个巨型低轨卫星互联网星座项目,计划在2019年至2024年间在太空搭建由约1.2万颗卫星组成的“星链”网络,其中1584颗将部署在地球上空550千米处的近地轨道,并从2020年开始工作。该卫星仍在工作。
2D轨道图
3D轨道图
轨道高度分析图
轨道倾角分析图
轨道综合分析图
查看轨道综合分析图